Flag for China Weather past 2 weeks in Foochow, Fujian, China

Now
50 °F

Light rain. Partly sunny.


Feels Like: 45 °F
Forecast: 47 / 54 °F
Wind: 13 mph from Northeast

Location: Fuzhou Airport

Current Time: Dec 26, 2014 at 8:13:21 AM

Latest Report: Dec 26, 2014 at 7:00 AM


Visibility: N/A

Pressure: 30.36 "Hg

Humidity: 71%

Dew point: 41 °F

Location of FoochowLocation

Historic Weather in Foochow — Graph

°F

Foochow temperature yesterday

Maximum temperature yesterday: 59 °F (at 11:00 AM)
Minimum temperature yesterday: 54 °F (at 3:00 AM)
Average temperature yesterday: 55 °F

Past Weeks' High & Low Weather Summary

 TemperatureHumidityPressure
High66 °F (Dec 24, 10:00 AM)88% (Dec 19, 1:00 PM)30.51 "Hg (Dec 19, 1:00 PM)
Low45 °F (Dec 17, 7:00 AM)28% (Dec 17, 10:00 AM)30.12 "Hg (Dec 15, 2:00 PM)
Average54 °F60%30.31 "Hg
* Reported Dec 11 7:00 AM — Dec 26 7:00 AM, Foochow, Weather by CustomWeather, © 2014

Note: Actual official high and low records may vary slightly from our data, if they occured in-between our weather recording intervals... More about our weather records

Advertising

Foochow weather history for previous 24 hours

 ConditionsComfort  
Time TempWeatherWind HumidityBarometerVisibility
7:00 AM
Dec 26
50 °FLight rain. Partly sunny.13 mph71%30.36 "HgN/A
6:00 AM52 °FLight rain. Passing clouds.17 mph67%30.30 "HgN/A
5:00 AM52 °FOvercast.13 mph62%30.30 "HgN/A
4:00 AM52 °FOvercast.15 mph72%30.30 "HgN/A
3:00 AM52 °FOvercast.17 mph72%30.30 "HgN/A
2:00 AM52 °FOvercast.17 mph72%30.30 "HgN/A
1:00 AM54 °FOvercast.17 mph72%30.30 "HgN/A
12:00 AM54 °FOvercast.20 mph72%30.30 "HgN/A
11:00 PM
Dec 25
54 °FOvercast.13 mph72%30.33 "HgN/A
10:00 PM54 °FOvercast.20 mph77%30.33 "HgN/A
9:00 PM54 °FOvercast.20 mph77%30.30 "Hg5 mi
8:00 PM54 °FFog.17 mph77%30.30 "Hg3 mi
7:00 PM54 °FFog.15 mph77%30.30 "Hg3 mi
6:00 PM54 °FOvercast.15 mph77%30.27 "Hg3 mi
5:00 PM54 °FOvercast.13 mph77%30.27 "Hg2 mi
4:00 PM55 °FOvercast.13 mph63%30.24 "Hg3 mi
3:00 PM55 °FScattered clouds.15 mph59%30.24 "Hg4 mi
2:00 PM55 °FPassing clouds.15 mph47%30.24 "Hg5 mi
1:00 PM55 °FClear.22 mph41%30.24 "Hg6 mi
12:00 PM57 °FClear.24 mph41%30.27 "Hg6 mi
11:00 AM59 °FClear.22 mph42%30.30 "Hg4 mi
10:00 AM57 °FClear.22 mph39%30.33 "Hg5 mi
9:00 AM57 °FClear.20 mph48%30.33 "Hg4 mi
8:00 AM55 °FClear.17 mph55%30.33 "Hg5 mi
Weather by CustomWeather, © 2014

See weather overviewHow to use our weather pages